Weather History for KFTG - May, 2013

Change the Weather History Date:

Sunday, May 5, 2013

  Actual Average (KDEN) Record (KDEN)
Temperature  
Mean Temperature 46 °F 53 °F  
Max Temperature 60 °F 67 °F 89 °F (2000)
Min Temperature 32 °F 39 °F 27 °F (1917)
Degree Days  
Heating Degree Days 19 12  
Month to date heating degree days 63  
Since 1 July heating degree days 5794  
Cooling Degree Days 0 0  
Month to date cooling degree days 0  
Year to date cooling degree days 1  
Moisture  
Dew Point 29 °F    
Average Humidity 61    
Maximum Humidity 87    
Minimum Humidity 23    
Precipitation  
Precipitation 0.00 in 0.07 in 1.14 in (1917)
Month to date precipitation 0.35  
Year to date precipitation 3.76  
Snow  
Snow 0.00 in - - ()
Month to date snowfall  
Since 1 July snowfall  
Snow Depth -    
Sea Level Pressure  
Sea Level Pressure 30.17 in    
Wind  
Wind Speed 7 mph (SSE)    
Max Wind Speed 15 mph    
Max Gust Speed -    
Visibility 10 miles    
Events      
T = Trace of Precipitation, MM = Missing Value Source: NWS Daily Summary

Daily Weather History Graph

Daily Weather History Graph

Search for Another Location

Airport or City:

Trip Planner

Search our weather history database for the weather conditions in past years. The results will help you decide how hot, cold, wet, or windy it might be!

Date:

Astronomy

May. 05, 2013 Rise Set
Actual Time 5:53 AM MDT 7:56 PM MDT
Civil Twilight 5:23 AM MDT 8:26 PM MDT
Nautical Twilight 4:47 AM MDT 9:02 PM MDT
Astronomical Twilight 4:08 AM MDT 9:42 PM MDT
Moon 3:24 AM MDT (5/5) 3:59 PM MDT (5/5)
Length of Visible Light 15h 02m
Length of Day
14h 03m
Waning Crescent, 17% of the Moon is Illuminated
May 5
Waning Crescent
May 9
New
May 17
First Quarter
May 24
Full
May 31
Last Quarter

Hourly Weather History & Observations

Time (MDT) Temp. Windchill Dew Point Humidity Pressure Visibility Wind Dir Wind Speed Gust Speed Precip Events Conditions
12:14 AM 37.4 °F 31.4 °F 30.2 °F 75% 30.24 in 10.0 mi SSE 8.1 mph - N/A   Clear
12:35 AM 37.4 °F 31.4 °F 28.4 °F 70% 30.24 in 10.0 mi SE 8.1 mph - N/A   Clear
12:55 AM 37.4 °F 31.4 °F 28.4 °F 70% 30.23 in 10.0 mi SE 8.1 mph - N/A   Mostly Cloudy
1:15 AM 37.4 °F 31.4 °F 28.4 °F 70% 30.23 in 10.0 mi SSE 8.1 mph - N/A   Scattered Clouds
1:35 AM 35.6 °F 29.2 °F 28.4 °F 75% 30.22 in 10.0 mi SSE 8.1 mph - N/A   Clear
1:54 AM 35.6 °F 31.7 °F 30.2 °F 81% 30.22 in 10.0 mi SSE 4.6 mph - N/A   Clear
2:15 AM 37.4 °F 34.9 °F 32.0 °F 81% 30.22 in 10.0 mi South 3.5 mph - N/A   Scattered Clouds
2:35 AM 37.4 °F 34.9 °F 32.0 °F 81% 30.22 in 10.0 mi South 3.5 mph - N/A   Mostly Cloudy
2:54 AM 35.6 °F 32.8 °F 30.2 °F 81% 30.21 in 10.0 mi South 3.5 mph - N/A   Scattered Clouds
3:15 AM 35.6 °F 31.7 °F 30.2 °F 81% 30.21 in 10.0 mi South 4.6 mph - N/A   Clear
3:35 AM 35.6 °F 29.2 °F 28.4 °F 75% 30.21 in 10.0 mi SSE 8.1 mph - N/A   Clear
3:55 AM 35.6 °F 28.6 °F 28.4 °F 75% 30.20 in 10.0 mi SE 9.2 mph - N/A   Clear
4:15 AM 33.8 °F 27.7 °F 28.4 °F 81% 30.20 in 10.0 mi SSE 6.9 mph - N/A   Clear
4:35 AM 33.8 °F 26.4 °F 28.4 °F 81% 30.20 in 10.0 mi SSE 9.2 mph - N/A   Clear
4:55 AM 35.6 °F 28.6 °F 28.4 °F 75% 30.19 in 10.0 mi SE 9.2 mph - N/A   Clear
5:15 AM 33.8 °F 27.0 °F 28.4 °F 81% 30.19 in 10.0 mi SSE 8.1 mph - N/A   Clear
5:35 AM 32.0 °F 25.6 °F 28.4 °F 87% 30.19 in 10.0 mi SSE 6.9 mph - N/A   Clear
5:55 AM 33.8 °F 29.6 °F 26.6 °F 75% 30.19 in 10.0 mi South 4.6 mph - N/A   Clear
6:15 AM 33.8 °F 25.8 °F 28.4 °F 81% 30.19 in 10.0 mi SSE 10.4 mph - N/A   Clear
6:35 AM 35.6 °F 29.9 °F 28.4 °F 75% 30.20 in 10.0 mi South 6.9 mph - N/A   Clear
6:50 AM 37.4 °F 33.8 °F 30.2 °F 75% 30.20 in 10.0 mi South 4.6 mph - N/A   Clear
8:51 AM 50.0 °F - 26.6 °F 40% 30.20 in 40.0 mi South 4.6 mph - N/A   Mostly Cloudy
9:53 AM 51.8 °F - 21.2 °F 30% 30.20 in 40.0 mi Calm Calm - N/A   Mostly Cloudy
1:46 PM 59.0 °F - 28.4 °F 31% 30.13 in 40.0 mi ENE 4.6 mph - N/A   Overcast
2:56 PM 60.8 °F - 23.0 °F 23% 30.11 in 40.0 mi SE 4.6 mph - N/A   Overcast
4:48 PM 59.0 °F - 23.0 °F 25% 30.10 in 40.0 mi SE 15.0 mph - N/A   Overcast
5:48 PM 57.2 °F - 23.0 °F 27% 30.10 in 30.0 mi South 8.1 mph - N/A   Overcast
6:48 PM 57.2 °F - 24.8 °F 29% 30.12 in 20.0 mi SE 5.8 mph - N/A   Overcast
7:49 PM 55.4 °F - 26.6 °F 33% 30.12 in 30.0 mi SE 8.1 mph - N/A   Mostly Cloudy
8:36 PM 50.0 °F - 28.4 °F 43% 30.13 in 10.0 mi SE 9.2 mph - N/A   Clear
8:56 PM 50.0 °F - 28.4 °F 43% 30.13 in 10.0 mi SSE 11.5 mph - N/A   Mostly Cloudy
9:16 PM 50.0 °F - 28.4 °F 43% 30.13 in 10.0 mi SSE 12.7 mph - N/A   Overcast
9:36 PM 50.0 °F - 28.4 °F 43% 30.13 in 10.0 mi South 8.1 mph - N/A   Overcast
9:55 PM 50.0 °F - 28.4 °F 43% 30.13 in 10.0 mi South 9.2 mph - N/A   Mostly Cloudy
10:15 PM 50.0 °F - 30.2 °F 47% 30.14 in 10.0 mi SSW 9.2 mph - N/A   Mostly Cloudy
10:35 PM 48.2 °F - 32.0 °F 54% 30.13 in 10.0 mi SW 9.2 mph - N/A   Mostly Cloudy
10:55 PM 48.2 °F - 33.8 °F 58% 30.13 in 10.0 mi SSW 8.1 mph - N/A   Mostly Cloudy
11:14 PM 44.6 °F 39.2 °F 32.0 °F 61% 30.13 in 10.0 mi SSW 10.4 mph - N/A   Scattered Clouds
11:35 PM 44.6 °F 39.7 °F 32.0 °F 61% 30.13 in 10.0 mi SSW 9.2 mph - N/A   Clear
11:55 PM 46.4 °F 42.4 °F 33.8 °F 62% 30.13 in 10.0 mi SSW 8.1 mph - N/A   Clear